Location: Mauna Kea VIS
(19.7591°N, 155.4561°W)
Time: 08:17:45
(UTC-10:00)

Hubble Space Telescope - Visible Passes

Search period start: 12 December 2025 00:00
Search period end: 22 December 2025 00:00
Orbit: 480 x 483 km, 28.5° (Epoch: 12 December)

Date Brightness Start Highest point End Pass type
(mag) Time Alt. Az. Time Alt. Az. Time Alt. Az.
12 Dec 2.2 18:45:19 10° NW 18:48:15 21° N 18:49:21 18° NNE visible
13 Dec 2.2 18:16:06 10° NW 18:19:02 21° N 18:21:52 10° NE visible
14 Dec 2.4 19:26:47 10° NW 19:28:37 22° NNW 19:28:37 22° NNW visible
15 Dec 1.5 18:57:31 10° NW 19:00:55 31° NNE 19:01:14 30° NNE visible
16 Dec 1.5 18:28:14 10° NW 18:31:38 31° NNE 18:33:57 17° ENE visible
16 Dec 3.7 20:07:52 10° WNW 20:08:09 12° WNW 20:08:09 12° WNW visible
17 Dec 1.9 19:38:34 10° WNW 19:40:59 37° W 19:40:59 37° W visible
18 Dec 0.6 19:09:14 10° WNW 19:13:01 72° SSW 19:13:58 46° SE visible
19 Dec 0.7 18:39:53 10° WNW 18:43:39 71° SSW 18:47:07 12° ESE visible
20 Dec 0.8 18:10:31 10° WNW 18:14:17 70° SSW 18:18:02 10° ESE visible
20 Dec 3.4 19:52:03 10° WSW 19:53:53 13° SSW 19:54:40 13° SSW visible
21 Dec 3.5 19:22:42 10° WSW 19:24:30 13° SSW 19:26:17 10° S visible
